Location: Allentsteig
(48.6833°N, 15.3167°E)
Time: 16:56:41
(UTC+00:00)

MetOp-B - Pass Details

Date: 18 September 2020
Orbit: 819 x 821 km, 98.7° (Epoch: 30 October)

Event Time Altitude Azimuth Distance (km) Brightness Sun altitude
Exits shadow 19:41:01 70° 135° (SE) 876 4.0 -25.1°
Maximum altitude 19:41:37 80° 73° (ENE) 839 4.0 -25.1°
Drops below altitude 10° 19:46:59 10° 347° (NNW) 2,428 7.2 -25.9°
Sets 19:49:21 0° 347° (NNW) 3,365 8.1 -26.2°
